[Iaude] MPEC A80: 2024 AQ1 [a=1.51,e=0.55,i=11.0,H=23.6]

mpec at marsden.cfa.harvard.edu mpec at marsden.cfa.harvard.edu
Mon Jan 8 13:38:05 EST 2024


M.P.E.C. 2024-A80                               Issued 2024 January 8, 18:36 UT

     The Minor Planet Electronic Circulars contain information on unusual
         minor planets, routine data on comets and natural satellites,
         and occasional editorial announcements.  They are published
    on behalf of Division F of the International Astronomical Union by the
          Minor Planet Center, Smithsonian Astrophysical Observatory,
                          Cambridge, MA 02138, U.S.A.
			  
             Prepared using the Tamkin Foundation Computer Network

                              MPC at CFA.HARVARD.EDU
            URL https://www.minorplanetcenter.net/    ISSN 1523-6714

                                    2024 AQ1                                    


Observations:
     K24A01Q*KC2024 01 07.26027 09 55 14.60 -07 54 23.0          17.6 GVEA080W94
     K24A01Q KC2024 01 07.26657 09 55 05.29 -07 54 04.8          18.2 GVEA080W94
     K24A01Q KC2024 01 07.27290 09 54 55.94 -07 53 46.3          18.3 GVEA080W94
     K24A01Q KC2024 01 07.30692 09 54 05.88 -07 52 06.9          19.0 GVEA080X10
     K24A01Q KC2024 01 07.31254 09 53 57.71 -07 51 50.1          20.0 GVEA080X10
     K24A01Q  C2024 01 07.31584609 53 53.19 -07 51 22.3                WEA080X09
     K24A01Q KC2024 01 07.31819 09 53 49.46 -07 51 33.1          19.8 GVEA080X10
     K24A01Q  C2024 01 07.31966109 53 47.65 -07 51 11.0                WEA080X09
     K24A01Q KC2024 01 07.32883 09 53 33.85 -07 51 02.3          19.4 GVEA080X10
     K24A01Q KC2024 01 07.33448 09 53 25.59 -07 50 45.6          18.9 GVEA080X10
     K24A01Q KC2024 01 07.34009 09 53 17.40 -07 50 29.1          19.0 GVEA080X10
     K24A01Q KB2024 01 07.35388 09 53 01.32 -07 52 07.2          19.8 GXEA080H36
     K24A01Q KB2024 01 07.35717 09 52 56.56 -07 51 57.6          19.4 GXEA080H36
     K24A01Q KB2024 01 07.36035 09 52 52.00 -07 51 48.3          19.7 GXEA080H36
     K24A01Q KC2024 01 07.61833109 47 01.166-07 36 20.23         19.3 GVEA080474
     K24A01Q KC2024 01 07.61932809 46 59.820-07 36 17.71         19.9 GVEA080474
     K24A01Q KC2024 01 07.62032509 46 58.457-07 36 14.69         19.9 GVEA080474
     K24A01Q KC2024 01 07.62132209 46 57.062-07 36 12.02         19.7 GVEA080474
     K24A01Q |C2024 01 08.21141009 34 44.630-07 09 25.40         19.8 GVEA080807
     K24A01Q |C2024 01 08.21292009 34 42.810-07 09 21.60         19.5 GVEA080807
     K24A01Q |C2024 01 08.21460009 34 40.800-07 09 16.90         19.5 GVEA080807
     K24A01Q |C2024 01 08.21619009 34 38.830-07 09 12.90         19.6 GVEA080807
     K24A01Q KC2024 01 08.25742 09 33 48.67 -07 07 39.5          18.6 GVEA080X10
     K24A01Q KC2024 01 08.26278 09 33 42.13 -07 07 25.2          18.7 GVEA080X10
     K24A01Q KC2024 01 08.26811 09 33 35.65 -07 07 10.7          18.7 GVEA080X10
     K24A01Q KC2024 01 08.48642 09 29 31.01 -06 57 01.6          18.8 RqEA080E94
     K24A01Q KC2024 01 08.49950 09 29 16.07 -06 56 27.7          18.9 RqEA080E94
     K24A01Q KC2024 01 08.51257 09 29 01.17 -06 55 53.7          18.9 RqEA080E94
     K24A01Q KC2024 01 08.52527 09 28 46.70 -06 55 21.8          18.9 RqEA080E94

Observer details:
474 Mount John Observatory, Lake Tekapo.  Observers A. C. Gilmore, P. M.
    Kilmartin.  Measurer P. M. Kilmartin.  1.0-m f/7.7 Reflector + CCD.
807 Cerro Tololo Observatory, La Serena.  Observers T. Linder, R. Holmes.
    0.61-m f/11 Ritchey-Chretien + CCD.
E94 Possum Observatory, Gisborne.  Observer J. Drummond.  0.41-m f/4.5
    Newtonian + CCD.
H36 Sandlot Observatory, Scranton.  Observer G. Hug.  0.56-m f/4.8 reflector +
    CMO.
W94 MAP, San Pedro de Atacama.  Observers A. Maury, G. Attard.  Measurers A.
    Maury, G. Attard, D. Parrott, F. Signoret, J.-M. Mari.  0.28-m f/2.2
    Schmidt astrograph + CCD.
X09 Deep Random Survey, Rio Hurtado.  Observers A. Schnabel, D. Ruhela.
    Measurer S. Deen.  0.43-m reflector + CMOS.
X10 OVTLN, San Pedro de Atacama.  Observers A. Maury, G. Attard, F. Signoret.
    Measurers A. Maury, G. Attard, D. Parrott, J.-M. Mari, F. Signoret.
    0.50-m f/4  reflector + CCD.

Orbital elements:
2024 AQ1                                                 Earth MOID = 0.0051 AU
Epoch 2023 Sept. 13.0 TT = JDT 2460200.5                MPC                     
M 326.84238              (2000.0)            P               Q                  
n   0.53097438     Peri.   99.78630     +0.90702851     -0.37778190             
a   1.5103827      Node   282.59825     +0.27109195     +0.86185490             
e   0.5458618      Incl.   10.98459     +0.32219318     +0.33835921             
P   1.86           H   23.62          G   0.15           U   8                  
Residuals in seconds of arc
240107 W94  0.2+  0.1+    240107 X10  0.2-  0.1+    240108 807  0.4+  0.0
240107 W94  0.2+  0.0     240107 H36  0.3+  0.2+    240108 807  0.1-  0.2-
240107 W94  0.1+  0.0     240107 H36  0.1+  0.2+    240108 X10  0.8+  0.3-
240107 X10  0.0   0.1-    240107 H36  0.5+  0.2+    240108 X10  0.2+  0.2-
240107 X10  1.0+  0.2+    240107 474  0.1-  0.2+    240108 X10  0.1-  0.2+
240107 X09  0.4-  0.7+    240107 474  0.1+  0.1-    240108 E94  0.4-  0.3-
240107 X10  1.3+  0.6+    240107 474  0.1+  0.1+    240108 E94  0.4-  0.2+
240107 X09  0.1+  0.8+    240107 474  0.4-  0.1-    240108 E94  0.1-  1.0+
240107 X10  0.4+  0.1+    240108 807  0.2-  0.1-    240108 E94  0.2+  0.5+
240107 X10  0.1+  0.2+    240108 807  0.0   0.3-

Ephemeris:
2024 AQ1                 a,e,i = 1.51, 0.55, 11                  q = 0.6859
Date    TT    R. A. (2000) Decl.     Delta      r    Elong.  Phase     V
2023 12 09    18 13 41.6 -04 07 42   0.2364  0.7788    25.7   146.8    27.8
...
2023 12 24    17 10 49.5 -05 08 10   0.09521 0.8965    22.7   154.9    27.8
...
2024 01 01    14 01 20.3 -10 34 37   0.04554 0.9670    67.8   109.7    21.0
...
2024 01 07    10 01 33.8 -08 07 58   0.06019 1.0213   127.8    49.6    19.4
2024 01 08    09 38 55.2 -07 19 54   0.06664 1.0304   133.6    43.8    19.5
2024 01 09    09 20 24.7 -06 36 33   0.07363 1.0395   138.3    39.0    19.6
...
2024 01 15    08 18 27.1 -03 39 36   0.1220  1.0942   153.6    23.6    20.4
...
2024 01 23    07 47 06.3 -01 28 36   0.1948  1.1666   157.6    18.8    21.4
...
2024 02 07    07 29 18.7 +01 13 33   0.3491  1.2987   149.3    22.8    23.0

A. U. Tomatic                (C) Copyright 2024 MPC           M.P.E.C. 2024-A80





More information about the Iaude mailing list